�������l�o���
Date,Time,MP-1(��Sv/h),MP-2(��Sv/h),MP-3(��Sv/h),MP-4(��Sv/h),MP-5(��Sv/h),MP-6(��Sv/h),MP-7(��Sv/h),MP-8(��Sv/h),����,����(m/s),���J
2018/09/28,00:00,0.759,1.130,0.800,1.420,1.013,0.451,0.790,0.752,�k��,5.5,��
2018/09/28,00:10,0.760,1.130,0.799,1.421,1.013,0.451,0.791,0.752,�k��,6.0,��
2018/09/28,00:20,0.760,1.131,0.800,1.420,1.014,0.451,0.790,0.753,�k��,6.0,��
2018/09/28,00:30,0.760,1.132,0.798,1.421,1.013,0.452,0.789,0.753,�k��,6.8,��
2018/09/28,00:40,0.758,1.133,0.800,1.418,1.014,0.450,0.790,0.755,�k��,6.0,��
2018/09/28,00:50,0.758,1.131,0.799,1.420,1.014,0.450,0.792,0.753,�k��,6.0,��
2018/09/28,01:00,0.760,1.130,0.801,1.421,1.015,0.452,0.790,0.753,�k�k��,6.3,��
2018/09/28,01:10,0.759,1.131,0.801,1.421,1.015,0.451,0.790,0.753,�k�k��,6.1,��
2018/09/28,01:20,0.760,1.133,0.799,1.419,1.013,0.452,0.791,0.753,�k�k��,6.2,��
2018/09/28,01:30,0.759,1.132,0.799,1.421,1.016,0.452,0.790,0.753,�k�k��,5.4,��
2018/09/28,01:40,0.759,1.131,0.800,1.422,1.013,0.452,0.789,0.752,�k�k��,5.3,��
2018/09/28,01:50,0.760,1.131,0.799,1.422,1.013,0.451,0.792,0.752,�k��,4.5,��
2018/09/28,02:00,0.759,1.132,0.801,1.423,1.016,0.451,0.789,0.752,�k�k��,5.2,��
2018/09/28,02:10,0.757,1.132,0.799,1.423,1.013,0.453,0.791,0.753,�k�k��,6.9,��
2018/09/28,02:20,0.760,1.131,0.800,1.420,1.015,0.452,0.790,0.752,�k�k��,8.1,��
2018/09/28,02:30,0.760,1.130,0.799,1.422,1.015,0.452,0.793,0.753,�k�k��,7.7,��
2018/09/28,02:40,0.759,1.133,0.801,1.422,1.014,0.453,0.792,0.753,�k�k��,9.3,��
2018/09/28,02:50,0.759,1.130,0.798,1.424,1.012,0.452,0.794,0.751,�k�k��,9.0,��
2018/09/28,03:00,0.759,1.130,0.800,1.422,1.014,0.451,0.791,0.752,�k�k��,9.1,��
2018/09/28,03:10,0.760,1.131,0.799,1.423,1.016,0.452,0.791,0.752,�k�k��,9.3,��
2018/09/28,03:20,0.759,1.129,0.801,1.423,1.015,0.452,0.791,0.754,�k�k��,8.7,��
2018/09/28,03:30,0.761,1.132,0.798,1.423,1.014,0.452,0.790,0.753,�k�k��,7.9,��
2018/09/28,03:40,0.758,1.131,0.800,1.421,1.016,0.452,0.789,0.753,�k�k��,8.5,��
2018/09/28,03:50,0.759,1.132,0.801,1.423,1.015,0.453,0.791,0.755,�k�k��,7.3,��
2018/09/28,04:00,0.760,1.132,0.801,1.421,1.014,0.451,0.790,0.754,�k�k��,7.4,��
2018/09/28,04:10,0.760,1.134,0.798,1.424,1.015,0.452,0.792,0.754,�k�k��,7.5,��
2018/09/28,04:20,0.758,1.133,0.800,1.425,1.016,0.451,0.790,0.753,�k�k��,6.4,��
2018/09/28,04:30,0.761,1.130,0.801,1.422,1.015,0.452,0.792,0.754,�k�k��,7.0,��
2018/09/28,04:40,0.760,1.132,0.802,1.422,1.017,0.452,0.791,0.752,�k�k��,7.0,��
2018/09/28,04:50,0.760,1.132,0.799,1.425,1.015,0.452,0.790,0.755,�k�k��,5.7,��
2018/09/28,05:00,0.759,1.133,0.799,1.424,1.015,0.452,0.790,0.754,�k�k��,6.2,��
2018/09/28,05:10,0.760,1.134,0.800,1.424,1.016,0.451,0.791,0.755,�k�k��,5.7,��
2018/09/28,05:20,0.760,1.130,0.801,1.425,1.016,0.452,0.790,0.753,�k�k��,5.3,��
2018/09/28,05:30,0.761,1.133,0.800,1.423,1.018,0.453,0.791,0.754,�k�k��,4.6,��
2018/09/28,05:40,0.759,1.132,0.801,1.424,1.016,0.452,0.791,0.754,�k�k��,4.2,��
2018/09/28,05:50,0.759,1.132,0.799,1.425,1.016,0.452,0.791,0.754,�k�k��,3.2,��
2018/09/28,06:00,0.762,1.132,0.799,1.425,1.015,0.451,0.791,0.754,�k�k��,2.8,��
2018/09/28,06:10,0.759,1.133,0.801,1.426,1.018,0.453,0.791,0.754,�k��,2.0,��
2018/09/28,06:20,0.759,1.134,0.802,1.425,1.017,0.451,0.794,0.753,�k��,1.9,��
2018/09/28,06:30,0.758,1.132,0.801,1.426,1.017,0.452,0.794,0.754,�k�k��,2.6,��
2018/09/28,06:40,0.760,1.134,0.801,1.425,1.017,0.452,0.793,0.753,�k,2.2,��
2018/09/28,06:50,0.762,1.137,0.800,1.426,1.018,0.452,0.793,0.754,�k�k��,1.7,��
2018/09/28,07:00,0.759,1.132,0.802,1.427,1.019,0.452,0.793,0.754,�k�k��,2.6,��
2018/09/28,07:10,0.760,1.135,0.801,1.425,1.018,0.451,0.794,0.754,�k��,3.7,��
2018/09/28,07:20,0.761,1.133,0.805,1.426,1.017,0.454,0.794,0.756,�k��,3.4,��
2018/09/28,07:30,0.761,1.137,0.801,1.424,1.017,0.453,0.794,0.753,�k�k��,2.8,��
2018/09/28,07:40,0.763,1.135,0.801,1.425,1.017,0.452,0.793,0.757,�k��,2.5,��
2018/09/28,07:50,0.764,1.136,0.803,1.427,1.016,0.453,0.794,0.754,�k�k��,3.8,��
2018/09/28,08:00,0.763,1.137,0.803,1.427,1.019,0.451,0.794,0.754,�k�k��,3.2,��
2018/09/28,08:10,0.764,1.132,0.803,1.428,1.019,0.453,0.792,0.755,�k�k��,3.1,��
2018/09/28,08:20,0.765,1.131,0.803,1.427,1.019,0.450,0.792,0.756,�k�k��,1.5,��
2018/09/28,08:30,0.764,1.135,0.801,1.426,1.021,0.451,0.792,0.754,�k�k��,1.1,��
2018/09/28,08:40,0.765,1.134,0.805,1.423,1.019,0.450,0.792,0.753,�k�k��,1.9,��
2018/09/28,08:50,0.764,1.136,0.804,1.426,1.021,0.450,0.792,0.754,�k�k��,2.6,��
2018/09/28,09:00,0.763,1.137,0.804,1.426,1.023,0.450,0.792,0.754,�k�k��,2.5,��
2018/09/28,09:10,0.762,1.134,0.804,1.428,1.022,0.450,0.793,0.754,�k��,2.8,��
2018/09/28,09:20,0.763,1.137,0.804,1.428,1.022,0.451,0.792,0.753,���k��,3.0,��
2018/09/28,09:30,0.763,1.135,0.802,1.428,1.023,0.452,0.792,0.754,���k��,2.3,��
2018/09/28,09:40,0.766,1.138,0.802,1.428,1.025,0.452,0.794,0.755,���k��,2.6,��
2018/09/28,09:50,0.766,1.137,0.802,1.430,1.025,0.451,0.791,0.752,�k��,3.3,��
2018/09/28,10:00,0.766,1.138,0.803,1.428,1.023,0.450,0.792,0.755,���k��,2.9,��
2018/09/28,10:10,0.764,1.140,0.801,1.428,1.024,0.450,0.793,0.752,���k��,2.3,��
2018/09/28,10:20,0.766,1.134,0.802,1.430,1.023,0.452,0.794,0.753,��,2.0,��
2018/09/28,10:30,0.766,1.135,0.804,1.432,1.026,0.453,0.794,0.755,���k��,2.6,��
2018/09/28,10:40,0.766,1.139,0.805,1.428,1.027,0.452,0.793,0.753,�k��,2.5,��
2018/09/28,10:50,0.767,1.141,0.805,1.428,1.029,0.454,0.794,0.754,�k��,3.6,��
2018/09/28,11:00,0.767,1.145,0.803,1.427,1.028,0.454,0.795,0.755,���k��,3.2,��
2018/09/28,11:10,0.767,1.143,0.806,1.430,1.029,0.454,0.795,0.756,��,3.9,��
2018/09/28,11:20,0.767,1.143,0.807,1.429,1.029,0.454,0.797,0.755,���k��,3.0,��
2018/09/28,11:30,0.768,1.143,0.804,1.431,1.029,0.452,0.797,0.755,��,3.2,��
2018/09/28,11:40,0.767,1.142,0.804,1.431,1.030,0.454,0.795,0.756,���k��,3.1,��
2018/09/28,11:50,0.768,1.146,0.806,1.430,1.029,0.455,0.797,0.753,��,2.9,��
2018/09/28,12:00,0.769,1.146,0.808,1.430,1.031,0.452,0.796,0.756,��,2.3,��
2018/09/28,12:10,0.769,1.146,0.807,1.433,1.032,0.457,0.796,0.754,���k��,2.6,��
2018/09/28,12:20,0.768,1.149,0.805,1.434,1.034,0.455,0.797,0.754,��,3.7,��
2018/09/28,12:30,0.768,1.145,0.810,1.433,1.035,0.455,0.795,0.755,���쓌,3.0,��
2018/09/28,12:40,0.768,1.148,0.807,1.433,1.032,0.455,0.796,0.757,���쓌,2.8,��
2018/09/28,12:50,0.768,1.147,0.809,1.432,1.033,0.454,0.796,0.756,��,3.3,��
2018/09/28,13:00,0.771,1.148,0.808,1.433,1.035,0.456,0.796,0.757,��,3.7,��
2018/09/28,13:10,0.770,1.149,0.809,1.433,1.036,0.453,0.796,0.755,���k��,3.8,��
2018/09/28,13:20,0.771,1.149,0.808,1.434,1.034,0.454,0.798,0.757,���k��,3.2,��
2018/09/28,13:30,0.769,1.146,0.809,1.435,1.036,0.454,0.795,0.755,��,3.5,��
2018/09/28,13:40,0.770,1.149,0.809,1.435,1.036,0.454,0.797,0.756,�k��,3.2,��
2018/09/28,13:50,0.770,1.152,0.808,1.436,1.038,0.453,0.797,0.755,��,3.4,��
2018/09/28,14:00,0.772,1.150,0.809,1.437,1.036,0.445,0.798,0.756,���쓌,4.4,��
2018/09/28,14:10,0.771,1.153,0.809,1.434,1.035,0.452,0.797,0.756,�쓌,3.2,��
2018/09/28,14:20,0.770,1.149,0.811,1.435,1.037,0.447,0.797,0.756,��,2.3,��
2018/09/28,14:30,0.770,1.149,0.810,1.434,1.037,0.455,0.797,0.757,���쓌,2.3,��
2018/09/28,14:40,0.770,1.147,0.810,1.435,1.036,0.456,0.798,0.756,���쓌,2.3,��
2018/09/28,14:50,0.772,1.152,0.811,1.434,1.036,0.456,0.797,0.756,���쓌,2.8,��
2018/09/28,15:00,0.770,1.151,0.810,1.433,1.038,0.457,0.798,0.757,���쓌,2.8,��
2018/09/28,15:10,0.771,1.148,0.809,1.436,1.036,0.455,0.798,0.755,���쓌,3.2,��
2018/09/28,15:20,0.771,1.153,0.808,1.434,1.038,0.454,0.799,0.756,�쓌,2.8,��
2018/09/28,15:30,0.772,1.153,0.809,1.435,1.039,0.455,0.800,0.756,��쓌,2.3,��
2018/09/28,15:40,0.771,1.153,0.811,1.436,1.040,0.454,0.797,0.759,��쓌,3.2,��
2018/09/28,15:50,0.772,1.154,0.810,1.435,1.040,0.456,0.797,0.756,�쓌,2.8,��
2018/09/28,16:00,0.771,1.156,0.810,1.432,1.039,0.456,0.797,0.755,��쓌,3.1,��
2018/09/28,16:10,0.770,1.155,0.810,1.435,1.038,0.456,0.796,0.757,��쓌,3.4,��
2018/09/28,16:20,0.771,1.153,0.812,1.436,1.037,0.456,0.798,0.756,��쓌,2.0,��
2018/09/28,16:30,0.772,1.159,0.809,1.438,1.036,0.457,0.797,0.754,�쓌,2.0,��
2018/09/28,16:40,0.773,1.155,0.812,1.437,1.036,0.458,0.796,0.755,�쓌,3.3,��
2018/09/28,16:50,0.769,1.156,0.810,1.436,1.037,0.457,0.796,0.757,��쓌,3.3,��
2018/09/28,17:00,0.770,1.159,0.811,1.438,1.036,0.457,0.796,0.757,��쓌,2.9,��
2018/09/28,17:10,0.770,1.159,0.809,1.436,1.037,0.458,0.797,0.756,��쓌,2.6,��
2018/09/28,17:20,0.770,1.163,0.811,1.439,1.038,0.457,0.798,0.759,��쓌,3.4,��
2018/09/28,17:30,0.772,1.160,0.811,1.440,1.036,0.458,0.797,0.761,��,3.6,��
2018/09/28,17:40,0.773,1.162,0.814,1.438,1.039,0.458,0.799,0.759,��,3.6,��
2018/09/28,17:50,0.771,1.163,0.813,1.439,1.038,0.457,0.799,0.759,��,2.0,��
2018/09/28,18:00,0.774,1.162,0.813,1.437,1.040,0.459,0.798,0.757,��쓌,1.7,��
2018/09/28,18:10,0.774,1.162,0.812,1.438,1.040,0.460,0.801,0.756,��,2.3,��
2018/09/28,18:20,0.775,1.161,0.814,1.440,1.041,0.460,0.799,0.759,��,2.0,��
2018/09/28,18:30,0.774,1.161,0.814,1.441,1.040,0.457,0.800,0.760,��,1.5,��
2018/09/28,18:40,0.771,1.162,0.812,1.438,1.041,0.458,0.800,0.758,��,2.8,��
2018/09/28,18:50,0.775,1.161,0.813,1.437,1.041,0.458,0.800,0.760,��쐼,1.2,��
2018/09/28,19:00,0.773,1.161,0.812,1.437,1.040,0.458,0.798,0.758,��,2.0,��
2018/09/28,19:10,0.771,1.162,0.814,1.438,1.044,0.457,0.800,0.758,��쐼,2.0,��
2018/09/28,19:20,0.771,1.159,0.815,1.435,1.040,0.457,0.799,0.758,��,1.2,��
2018/09/28,19:30,0.772,1.160,0.812,1.439,1.043,0.457,0.799,0.759,��쐼,1.2,��
2018/09/28,19:40,0.773,1.160,0.813,1.439,1.042,0.456,0.800,0.758,��쓌,0.9,��
2018/09/28,19:50,0.772,1.160,0.814,1.438,1.040,0.457,0.799,0.758,��쓌,0.8,��
2018/09/28,20:00,0.774,1.161,0.811,1.439,1.043,0.457,0.798,0.758,-,CALM,��
2018/09/28,20:10,0.772,1.162,0.812,1.439,1.041,0.456,0.798,0.757,��,0.9,��
2018/09/28,20:20,0.774,1.159,0.815,1.439,1.040,0.456,0.799,0.758,��쐼,0.9,��
2018/09/28,20:30,0.771,1.159,0.813,1.441,1.041,0.457,0.797,0.759,-,CALM,��
2018/09/28,20:40,0.773,1.161,0.811,1.438,1.043,0.457,0.799,0.758,�k��,0.6,��
2018/09/28,20:50,0.771,1.158,0.812,1.440,1.042,0.458,0.797,0.758,-,CALM,��
2018/09/28,21:00,0.771,1.161,0.812,1.437,1.042,0.457,0.800,0.757,-,CALM,��
2018/09/28,21:10,0.771,1.159,0.814,1.440,1.040,0.456,0.799,0.757,-,CALM,��
2018/09/28,21:20,0.772,1.159,0.812,1.437,1.041,0.457,0.799,0.758,��,1.1,��
2018/09/28,21:30,0.770,1.159,0.814,1.440,1.040,0.457,0.799,0.758,��,1.1,��
2018/09/28,21:40,0.771,1.158,0.813,1.438,1.042,0.456,0.798,0.758,��,0.9,��
2018/09/28,21:50,0.770,1.158,0.813,1.440,1.042,0.457,0.798,0.760,���k��,0.9,��
2018/09/28,22:00,0.771,1.159,0.812,1.438,1.041,0.457,0.798,0.758,��,0.8,��
2018/09/28,22:10,0.772,1.158,0.811,1.439,1.042,0.455,0.799,0.757,�쐼,0.6,��
2018/09/28,22:20,0.772,1.158,0.813,1.439,1.039,0.454,0.797,0.758,���쐼,0.9,��
2018/09/28,22:30,0.770,1.158,0.812,1.437,1.041,0.456,0.800,0.758,���쐼,1.4,��
2018/09/28,22:40,0.773,1.160,0.813,1.438,1.041,0.455,0.798,0.758,�쐼,1.5,��
2018/09/28,22:50,0.773,1.156,0.811,1.439,1.040,0.455,0.797,0.757,�쐼,1.9,��
2018/09/28,23:00,0.773,1.161,0.813,1.438,1.040,0.456,0.799,0.757,��쐼,2.0,��
2018/09/28,23:10,0.771,1.158,0.812,1.438,1.042,0.455,0.798,0.759,��쐼,2.2,��
2018/09/28,23:20,0.771,1.159,0.814,1.438,1.039,0.456,0.799,0.758,��쐼,2.6,��
2018/09/28,23:30,0.770,1.156,0.812,1.439,1.040,0.455,0.798,0.758,��쐼,2.3,��
2018/09/28,23:40,0.771,1.157,0.813,1.438,1.042,0.455,0.798,0.759,��쐼,2.6,��
2018/09/28,23:50,0.772,1.159,0.812,1.438,1.038,0.456,0.798,0.758,��쐼,2.5,��
